Theta_e
321 322 322 321 326 328 329 334 336 334 336 342 343 344 339 341 339 337 333 330 329 326 326 327 326 326 325 324 322 319 317 315 320 321 321 321 321 321 320 320 320 319 318 317
321 323 323 322 325 330 335 336 336 335 337 338 336 337 339 340 343 341 342 339 332 329 327 328 327 327 326 325 324 323 320 316 320 321 321 320 321 321 321 320 320 320 319 318
324 324 322 323 324 333 334 335 334 335 338 337 332 331 336 342 343 341 341 341 338 333 329 329 329 327 326 326 326 325 324 317 320 321 321 321 321 322 322 321 320 320 319 318
323 322 323 322 325 331 332 329 333 337 334 336 330 335 332 340 340 343 341 340 340 337 332 329 330 328 327 327 327 327 324 321 318 321 322 322 321 322 322 321 320 320 320 319
324 324 323 325 326 329 331 332 334 335 336 335 335 335 336 339 337 336 334 339 337 334 335 333 330 329 328 327 328 326 324 323 318 318 321 322 321 321 321 320 320 321 320 319
322 321 323 325 328 331 332 330 326 329 330 335 336 337 337 336 335 333 333 332 332 330 330 333 330 329 328 329 332 332 327 324 321 320 321 322 322 321 321 320 321 320 320 319
322 323 321 326 330 329 328 328 332 333 334 335 333 340 335 332 332 334 334 331 331 330 330 331 328 329 329 329 332 328 333 325 324 322 320 320 321 320 319 319 320 321 321 320
323 324 324 325 331 332 332 329 331 336 335 332 331 341 334 332 333 331 333 332 331 330 328 331 328 330 330 329 334 327 332 331 326 323 321 319 321 321 320 321 321 321 320 318
322 323 325 331 331 330 332 332 328 330 328 330 328 330 328 334 334 335 333 332 330 331 330 330 330 331 330 331 334 329 330 330 329 325 322 321 321 322 322 320 320 320 320 319
322 324 323 330 331 331 330 328 331 327 333 335 332 334 332 333 333 335 334 332 330 331 332 330 330 330 330 331 333 329 333 330 329 326 324 323 322 321 322 321 321 320 320 320
320 322 323 329 329 330 332 332 330 326 328 334 337 334 326 332 331 332 332 330 331 332 333 332 330 330 330 332 331 331 331 330 327 326 325 324 323 322 322 322 321 321 321 321
323 320 324 326 328 327 329 330 328 330 331 332 332 334 333 332 331 331 332 331 330 330 332 331 331 330 330 331 331 331 331 331 329 327 325 325 324 323 322 322 322 321 321 321
328 326 329 329 326 326 331 332 329 325 328 335 334 333 333 334 332 331 331 329 327 326 327 331 331 332 331 330 330 331 332 331 330 328 326 325 325 324 323 322 322 322 321 321
328 324 325 327 326 326 332 331 332 329 331 331 331 330 329 334 334 333 331 329 326 327 327 328 329 329 331 332 331 331 331 330 329 326 325 324 323 323 323 322 322 321 321 321
320 324 330 328 327 332 332 332 332 332 330 333 332 330 330 333 333 332 332 330 330 328 327 326 327 328 330 330 331 330 330 329 327 326 324 322 322 321 322 321 321 321 321 321
325 326 332 334 333 334 333 332 334 334 333 331 335 335 334 334 332 332 331 331 330 328 330 329 328 328 331 331 331 331 330 329 325 325 323 322 322 322 321 320 321 320 320 320
330 332 331 330 333 329 325 333 336 337 337 337 338 333 337 336 335 333 331 329 329 329 330 330 327 328 331 331 332 330 329 325 324 325 323 322 322 323 322 321 320 321 323 324
336 333 331 335 331 335 326 333 336 338 340 339 336 336 335 334 333 330 329 329 329 329 331 329 328 329 330 330 329 327 324 325 325 324 324 323 321 321 323 325 324 323 320 318
327 332 332 334 332 330 333 333 333 334 333 339 335 335 334 332 332 331 330 329 329 330 331 330 329 329 328 327 326 326 326 325 323 322 324 326 327 326 322 317 316 315 315 317
328 325 329 332 334 336 331 336 334 331 335 336 335 336 335 333 335 334 330 329 331 333 330 329 328 327 327 326 326 325 326 328 327 326 322 319 316 315 315 314 313 314 316 315
332 330 334 331 334 333 330 335 333 338 336 336 335 335 335 335 333 331 330 331 332 331 329 328 326 324 325 327 327 328 327 323 319 317 314 313 313 314 313 311 312 315 313 311
333 334 336 333 335 337 336 336 336 331 334 336 335 335 335 333 332 332 332 331 330 330 327 325 323 322 325 326 327 324 321 318 315 312 311 313 312 311 311 311 313 312 311 310
332 330 332 333 333 328 331 336 332 333 335 335 334 331 329 330 329 331 330 328 330 329 326 323 324 323 322 323 322 319 316 314 310 311 312 309 310 310 311 312 311 311 310 310
331 331 335 334 330 332 333 333 334 333 335 332 330 329 331 333 332 331 330 328 327 325 324 324 320 316 314 315 316 315 313 309 310 311 309 309 310 311 312 312 311 309 309 308
330 331 331 332 330 331 332 331 331 332 331 331 330 330 330 331 332 328 326 327 326 324 324 323 318 314 311 307 308 313 312 309 310 310 310 310 311 311 312 310 308 308 309 309
330 331 333 333 328 331 331 328 328 330 330 331 331 332 331 331 330 328 327 326 326 326 324 319 316 313 309 306 309 311 312 310 310 310 310 310 310 310 309 309 308 309 309 309
Wind_Speed
3 4 3 8 10 5 2 3 4 3 4 6 11 13 9 8 12 8 9 13 14 13 13 24 27 24 20 16 13 12 10 11 13 10 9 10 12 12 13 11 8 5 5 6
4 2 4 6 1 4 3 3 5 1 2 4 0 10 2 5 11 14 13 15 13 14 8 14 21 26 26 22 15 15 12 12 14 11 10 7 10 9 12 12 11 8 8 7
3 4 7 5 5 3 3 4 1 2 2 2 5 7 4 3 2 7 10 10 10 14 15 11 17 27 28 22 18 20 14 12 13 11 11 10 8 9 11 12 13 11 10 9
2 4 5 8 3 3 4 3 5 4 4 2 3 4 4 3 7 6 9 12 16 12 12 13 18 25 26 27 19 19 16 12 11 12 12 11 12 9 10 9 11 11 12 12
6 4 7 4 5 0 3 4 5 3 3 1 5 3 7 5 6 6 8 13 7 10 13 19 21 27 25 17 10 14 17 16 10 11 11 11 11 9 7 7 9 9 9 9
5 3 3 4 3 4 6 4 7 4 3 4 5 3 6 3 4 8 4 4 7 9 12 14 11 19 23 19 20 11 25 21 12 9 10 10 10 11 11 11 10 7 8 9
6 5 4 2 3 4 4 6 3 4 5 4 4 2 8 6 5 4 9 11 11 10 12 5 11 24 30 33 27 22 25 23 15 12 12 13 11 11 12 12 12 12 11 11
3 7 2 4 2 3 3 4 5 1 1 5 4 4 5 4 2 4 6 8 9 10 7 6 12 20 22 30 31 28 27 24 18 15 14 12 10 10 13 13 14 12 11 11
5 5 3 2 3 3 1 2 3 6 3 2 3 7 7 2 1 5 8 9 10 13 12 6 14 19 25 32 34 27 20 19 19 19 16 13 13 14 14 13 14 13 13 13
7 2 3 4 3 5 2 4 3 3 0 3 5 5 5 4 6 3 6 9 10 12 12 9 10 19 24 34 28 16 8 12 20 20 18 16 14 13 14 15 16 15 16 17
5 4 5 1 1 5 1 1 5 4 4 4 2 7 5 5 7 6 6 7 8 9 9 6 5 10 18 24 22 13 8 8 18 21 19 16 15 14 15 19 20 20 21 21
1 5 1 6 3 2 1 3 5 5 4 2 4 6 3 3 5 3 5 6 6 6 5 4 5 8 15 21 21 18 12 13 14 16 16 16 15 15 17 20 23 24 24 24
6 3 3 8 6 4 1 2 5 4 3 5 4 6 2 2 4 5 4 7 7 7 8 3 0 4 9 14 17 19 20 19 12 8 12 12 16 17 19 22 24 25 25 26
7 3 6 5 6 3 5 3 3 4 3 3 5 6 4 6 7 3 5 3 7 8 7 7 5 2 4 9 13 13 16 13 6 5 5 13 17 16 18 21 22 24 25 27
4 3 4 4 6 3 3 1 3 5 3 4 3 6 7 7 3 3 4 3 7 8 9 8 7 7 2 3 6 8 3 3 4 1 6 9 12 13 14 16 18 21 25 27
3 1 1 2 2 3 3 4 3 2 3 7 4 6 2 2 1 4 2 1 0 5 6 5 7 7 3 1 0 3 1 2 4 2 5 8 11 12 13 15 17 20 22 19
3 4 3 4 4 4 4 3 3 2 4 1 4 3 3 0 2 2 4 3 5 5 6 7 6 6 3 0 3 1 6 7 3 4 8 10 13 16 16 16 14 13 13 15
5 4 2 3 3 0 6 1 2 5 2 4 3 4 4 1 2 5 1 2 6 6 6 5 7 6 6 6 6 10 8 2 3 6 9 10 10 9 10 11 11 10 11 13
2 4 3 3 3 5 2 1 1 0 5 3 3 5 2 2 4 5 2 2 1 2 3 4 5 6 11 11 10 8 7 4 5 7 7 7 7 8 9 10 10 11 11 13
5 6 4 2 2 4 3 2 1 2 5 4 4 7 6 3 2 7 3 2 4 4 4 7 7 10 11 11 10 10 10 9 9 7 8 8 8 8 9 9 10 11 11 13
3 3 3 2 2 6 3 4 2 2 7 6 5 7 4 4 6 4 3 3 1 8 7 10 11 14 13 12 11 11 9 10 8 6 6 8 8 8 9 10 11 9 11 13
1 2 1 2 1 4 2 3 4 5 3 4 4 1 4 7 10 7 7 4 10 14 15 14 15 13 11 9 10 12 11 7 5 4 7 8 10 10 9 9 9 11 11 12
1 4 3 6 5 5 5 7 6 1 2 3 1 3 5 10 10 9 6 3 8 18 18 15 16 16 12 10 9 11 8 5 5 6 9 10 10 9 9 9 10 11 10 11
2 3 2 1 4 6 6 6 6 2 3 3 2 4 4 7 8 8 7 6 7 17 18 17 17 15 13 9 9 10 7 6 7 10 10 9 9 8 9 10 10 10 11 11
3 4 3 5 7 7 8 5 4 4 7 6 4 4 8 8 6 3 2 7 12 16 18 18 16 14 12 7 9 8 6 6 8 11 9 8 7 7 9 10 10 10 10 10
5 6 5 6 5 3 7 3 4 5 5 5 2 5 6 5 5 4 7 8 14 18 18 16 14 14 10 8 8 7 6 5 7 9 8 7 6 5 6 7 7 6 6 7
Wind_Direction
27 74 241 251 221 213 191 198 244 225 212 156 231 266 251 229 221 217 217 224 229 238 241 222 223 218 215 210 208 215 220 218 214 232 257 252 243 246 243 243 257 271 299 331
26 301 249 321 96 148 148 255 268 114 12 160 69 268 332 270 222 211 223 232 235 242 228 209 218 220 214 209 212 224 223 218 218 232 240 246 230 241 241 245 246 262 273 292
158 266 303 16 354 112 217 201 107 58 45 89 347 313 350 329 244 212 243 246 241 235 238 218 193 214 217 206 212 234 229 228 221 233 236 241 236 240 239 239 243 258 263 275
285 295 334 342 323 132 332 243 122 117 60 278 11 279 314 306 296 247 243 239 245 246 240 231 202 203 198 205 211 249 249 246 230 231 238 250 249 257 250 234 246 267 261 253
256 312 326 331 298 181 291 61 92 96 130 107 354 56 275 338 315 282 256 256 267 253 243 238 210 201 188 171 198 283 271 263 255 245 253 267 274 275 262 241 260 276 275 242
228 262 221 223 24 73 120 55 39 53 70 21 334 84 294 299 290 308 299 274 252 271 279 261 194 145 131 170 181 216 261 249 245 254 250 258 268 266 269 267 271 288 274 255
342 282 316 206 73 25 85 66 353 3 8 241 300 22 246 289 311 265 293 315 323 324 335 22 125 139 156 170 175 203 232 234 228 241 246 248 258 268 273 274 267 283 273 272
143 325 1 342 107 173 40 138 145 231 263 270 318 244 262 230 303 308 301 302 313 326 360 33 136 152 157 168 182 202 217 217 216 230 239 240 245 259 266 270 280 278 288 286
160 271 297 35 111 107 189 42 148 105 25 41 263 295 319 272 279 352 337 334 325 340 12 8 144 154 166 178 199 207 217 226 211 223 230 236 242 252 263 274 272 275 284 288
212 301 255 170 100 39 134 146 35 14 161 287 291 285 244 310 292 303 327 321 331 337 9 17 147 168 180 190 203 208 212 223 216 221 227 237 246 256 263 271 278 285 286 286
140 118 280 59 219 204 84 340 58 116 124 175 272 276 225 259 278 217 264 307 323 339 353 24 107 188 193 203 211 201 180 216 229 227 229 239 251 260 266 271 278 282 285 288
113 130 223 237 266 219 143 177 133 121 242 160 149 273 281 279 317 217 278 301 321 326 339 356 108 170 203 216 217 214 206 221 235 233 233 246 260 267 270 275 284 288 285 292
181 31 34 348 358 358 333 110 96 103 75 192 136 267 166 247 249 245 308 323 330 324 335 337 106 194 211 222 221 220 228 233 247 242 244 264 282 278 275 278 284 291 290 294
89 104 143 185 213 200 312 315 142 138 114 180 225 285 299 253 243 270 306 315 330 327 319 306 308 249 218 225 222 221 232 234 251 246 293 303 300 297 287 283 286 292 296 297
92 126 150 212 234 226 248 322 172 211 192 172 272 209 263 242 254 222 256 11 6 345 328 318 324 324 22 170 209 216 226 219 214 223 316 323 324 319 297 287 294 305 310 311
8 171 90 267 263 334 264 298 260 132 132 263 285 280 272 339 304 227 56 77 51 338 312 355 326 343 16 26 145 11 286 186 176 291 312 311 316 319 313 313 316 317 320 325
73 123 84 267 338 6 352 281 322 102 72 317 236 286 279 271 310 1 313 291 343 310 314 5 11 25 84 279 229 146 156 159 187 326 321 323 325 320 323 327 333 344 344 341
130 102 104 225 17 42 242 18 212 131 172 294 290 273 261 242 281 270 223 303 342 299 351 354 35 65 92 106 131 138 142 118 349 335 328 328 334 344 351 357 8 10 5 1
61 117 98 147 189 279 273 166 46 176 272 226 267 295 321 325 3 309 87 313 164 329 347 33 56 91 106 108 121 108 75 25 20 20 13 14 8 18 27 22 24 28 27 34
54 64 111 110 161 218 255 26 26 125 292 220 218 240 214 86 22 264 111 32 79 85 56 76 96 105 105 99 104 99 86 77 58 50 62 56 42 34 37 47 47 45 53 67
6 10 103 106 219 292 273 304 290 84 243 206 211 234 179 171 201 273 167 19 323 129 115 119 120 105 107 116 120 100 96 82 82 70 44 42 41 54 72 62 48 54 74 76
143 111 198 79 51 312 202 306 190 228 287 235 212 300 331 317 301 301 291 264 196 134 126 132 124 116 132 125 117 104 88 87 90 66 60 65 78 73 66 49 65 76 71 56
318 176 188 173 222 241 242 234 268 321 314 9 4 296 328 299 291 289 292 227 160 141 137 138 126 114 111 111 108 102 98 111 85 77 78 82 69 68 63 77 83 78 52 36
244 154 192 30 251 247 259 269 250 89 220 231 267 293 284 281 293 281 291 140 128 130 136 147 136 123 106 100 102 100 111 93 99 96 83 63 59 70 85 86 83 72 56 41
197 130 181 268 285 290 274 253 306 245 234 248 286 277 285 276 275 228 148 126 137 137 148 156 147 133 113 104 96 103 119 114 106 111 86 61 62 93 102 100 89 72 57 43
185 188 165 226 233 203 263 220 303 268 273 229 227 305 348 19 20 16 113 138 143 140 155 153 142 126 116 95 90 108 127 136 110 109 89 69 88 108 125 126 116 74 49 37